Weather History for PAGH - January, 2014

Change the Weather History Date:

Thursday, January 16, 2014

  Actual Average (PAFM) Record (PAFM)
Temperature  
Mean Temperature -30 °F -  
Max Temperature -23 °F 3 °F 39 °F (2009)
Min Temperature -36 °F -3 °F -69 °F (1991)
Degree Days  
Heating Degree Days 94    
Moisture  
Dew Point -32 °F    
Average Humidity 71    
Maximum Humidity 77    
Minimum Humidity 69    
Precipitation  
Precipitation 0.00 in - - ()
Sea Level Pressure  
Sea Level Pressure 29.97 in    
Wind  
Wind Speed 3 mph (ESE)    
Max Wind Speed 6 mph    
Max Gust Speed -    
Visibility 10 miles    
Events      
Averages and records for this station are not official NWS values.
T = Trace of Precipitation, MM = Missing Value Source: NWS Daily Summary

Daily Weather History Graph

Daily Weather History Graph

Search for Another Location

Airport or City:

Trip Planner

Search our weather history database for the weather conditions in past years. The results will help you decide how hot, cold, wet, or windy it might be!

Date:

Astronomy

Jan. 16, 2014 Rise Set
Actual Time 11:32 AM AKST 3:45 PM AKST
Civil Twilight 10:07 AM AKST 5:09 PM AKST
Nautical Twilight 8:54 AM AKST 6:23 PM AKST
Astronomical Twilight 7:49 AM AKST 7:28 PM AKST
Moon 5:56 PM AKST (1/16) 10:29 AM AKST (1/16)
Length of Visible Light 7h 01m
Length of Day
4h 13m
Full, 100% of the Moon is Illuminated
Jan 16
Full
Jan 23
Last Quarter
Jan 30
New
Feb 6
First Quarter
Feb 14
Full

Hourly Weather History & Observations

Time (AKST) Temp. Windchill Dew Point Humidity Pressure Visibility Wind Dir Wind Speed Gust Speed Precip Events Conditions
12:57 AM -33.0 °F -45.5 °F - N/A% 30.03 in 10.0 mi East 3.5 mph - N/A   Clear
1:57 AM -32.1 °F -44.5 °F - N/A% 30.02 in 10.0 mi ESE 3.5 mph - N/A   Clear
2:57 AM -31.0 °F - - N/A% 30.00 in 10.0 mi Calm Calm - N/A   Clear
3:57 AM -34.1 °F - - N/A% 29.99 in 10.0 mi Calm Calm - N/A   Clear
4:57 AM -36.9 °F -53.0 °F - N/A% 29.97 in 3.0 mi East 4.6 mph - N/A   Clear
5:57 AM -32.1 °F -44.5 °F - N/A% 29.94 in 10.0 mi East 3.5 mph - N/A   Clear
6:57 AM -33.0 °F -48.4 °F - N/A% 29.92 in 10.0 mi ESE 4.6 mph - N/A   Clear
7:57 AM -33.0 °F - - N/A% 29.89 in 10.0 mi Calm Calm - N/A   Clear
8:57 AM -31.0 °F - - N/A% 29.88 in 10.0 mi Calm Calm - N/A   Clear
9:57 AM -32.1 °F -49.6 °F - N/A% 29.89 in 10.0 mi ESE 5.8 mph - N/A   Clear
10:57 AM -29.9 °F - - N/A% 29.89 in 10.0 mi Calm Calm - N/A   Scattered Clouds
11:57 AM -31.0 °F -43.3 °F - N/A% 29.91 in 10.0 mi ESE 3.5 mph - N/A   Clear
12:57 PM -27.0 °F -38.7 °F -34.1 °F 69% 29.91 in 9.0 mi East 3.5 mph - N/A   Overcast
1:57 PM -25.1 °F - -31.0 °F 74% 29.92 in 10.0 mi Calm Calm - N/A   Scattered Clouds
2:57 PM -24.0 °F - -31.0 °F 70% 29.93 in 10.0 mi Calm Calm - N/A   Clear
3:57 PM -24.0 °F - -29.9 °F 74% 29.95 in 10.0 mi Calm Calm - N/A   Clear
4:57 PM -23.1 °F - -29.9 °F 70% 29.95 in 10.0 mi Calm Calm - N/A   Clear
5:57 PM -25.1 °F -36.5 °F -32.1 °F 70% 29.98 in 10.0 mi ESE 3.5 mph - N/A   Clear
6:57 PM -25.1 °F -41.3 °F -32.1 °F 70% 30.00 in 10.0 mi SSE 5.8 mph - N/A   Partly Cloudy
7:57 PM -27.0 °F -41.5 °F -33.0 °F 73% 30.03 in 10.0 mi ESE 4.6 mph - N/A   Clear
8:57 PM -26.0 °F -40.2 °F -33.0 °F 69% 30.07 in 10.0 mi East 4.6 mph - N/A   Scattered Clouds
9:57 PM -24.0 °F -35.2 °F -29.0 °F 77% 30.07 in 10.0 mi SSE 3.5 mph - N/A   Overcast
10:57 PM -26.0 °F - -33.0 °F 69% 30.06 in 10.0 mi Calm Calm - N/A   Clear
11:57 PM -27.0 °F -41.5 °F -34.1 °F 69% 30.06 in 10.0 mi ENE 4.6 mph - N/A   Clear